TIME,DELAY(SENSOR),PRES,T(CTD),SAL,OXYGEN,RAWTEMP,T(OPTODE),TCPHASE,FLUOR,BETA(BETA700),BETA(BETA412),BETA(BETA440),CDOM,C(CSC),ED(ED412.40),ED(ED444.00),ED(ED489.70),ED(ED554.30),LU(LU411.80),LU(LU443.40),LU(LU489.60),LU(LU554.10),COMP,TILTX,TILTX(TILTY),CHECK
1368827206,5806,497.0899963378906000,6.7669000625610350,34.1104011535644500,84.0438537597656200,595.0938110351562000,6.7426428794860840,48.3671798706054700,51,104,89,80,79,14906,2147748470,2147426505,2148006217,2147876342,2147628297,2147073846,2148240164,2147198454,2299,4,13,14255
1368827309,5811,485.7699890136719000,7.0725002288818360,34.1040000915527340,94.6597900390625000,585.5352783203125000,7.0505428314208980,47.0402717590332000,51,103,85,79,77,14906,2147744978,2147423744,2148010112,2147872603,2147630464,2147074889,2148238848,2147202185,1837,4,13,10374
1368827421,5806,474.0100097656250000,7.3038997650146480,34.0975990295410160,103.7792968750000000,577.8328247070312000,7.2980518341064450,45.9518394470214840,51,103,85,80,77,14902,2147747437,2147424402,2148007195,2147873929,2147627803,2147077083,2148240521,2147202102,1410,4,13,1317
1368827543,5810,463.2200012207031000,7.5380997657775880,34.0904998779296900,113.0444030761718800,570.9259033203125000,7.5195407867431640,44.9052314758300800,51,104,88,79,76,14908,2147746349,2147423661,2148005321,2147873243,2147627090,2147076946,2148239862,2147199917,1058,4,13,52866
1368827670,5811,452.6700134277344000,7.7474999427795410,34.0872993469238300,120.5091018676757800,564.6179809570312000,7.7214550971984860,44.0787506103515600,50,104,88,79,74,14901,2147745316,2147425252,2148003236,2147870244,2147622500,2147081819,2148238573,2147205202,3451,4,13,63415
1368827800,5808,441.9200134277344000,7.8187999725341800,34.0892982482910160,125.0090026855468800,562.1608886718750000,7.8000130653381350,43.6160392761230500,50,104,85,79,75,14903,2147743753,2147425563,2148006829,2147871798,2147626066,2147088448,2148235611,2147204242,3581,4,13,25364
1368827951,5807,430.2600097656250000,8.0256004333496100,34.0848007202148440,131.6965026855468800,555.7113037109375000,8.0059738159179690,42.8980293273925800,50,104,87,78,76,14905,2147740032,2147426514,2148002816,2147872064,2147625956,2147079972,2148236909,2147202240,1133,4,13,13708
1368828096,5809,418.7300109863281000,8.2153997421264650,34.0834007263183600,140.2882995605468800,549.2811279296875000,8.2109661102294920,42.0368881225585940,51,104,91,79,75,14907,2147744429,2147426889,2148004809,2147872832,2147621403,2147091520,2148234779,2147201197,182,3,13,6412
1368828211,5807,408.3399963378906000,8.4464998245239260,34.0826988220214840,150.6414031982422000,542.3347167968750000,8.4320354461669920,41.0554695129394500,50,103,88,80,73,14903,2147739273,2147424576,2148004845,2147871588,2147622509,2147087213,2148232731,2147204397,2359,4,13,57210
1368828340,5807,396.2999877929687500,8.6824998855590820,34.0848007202148440,160.0158996582031200,534.1107177734375000,8.6932621002197270,40.1737403869628900,50,103,85,80,73,14905,2147741110,2147427126,2148004854,2147870299,2147617801,2147092489,2148231250,2147204662,2020,3,13,55699
1368828467,5807,384.9200134277344000,8.9412002563476560,34.0900001525878900,169.2413940429687500,526.6818847656250000,8.9287719726562500,39.3529014587402340,50,102,85,80,72,14904,2147739465,2147427209,2148004205,2147872804,2147619776,2147089353,2148231305,2147206317,685,4,14,46503
1368828594,5806,374.4100036621094000,9.2465000152587890,34.1008987426757800,174.5238952636718800,515.6555786132812000,9.2775592803955080,38.7817497253418000,50,103,89,79,73,14903,2147740086,2147428141,2148005449,2147873536,2147617417,2147088969,2148227648,2147205760,2999,3,13,14681
1368828736,5809,363.7300109863281000,9.4665002822875980,34.1076011657714840,183.0354003906250000,510.1406860351562500,9.4516696929931640,38.0956497192382800,50,105,87,80,71,14903,2147739693,2147428589,2148004406,2147871396,2147616658,2147097307,2148228626,2147202825,2537,4,13,23319
1368828875,5810,352.9400024414062500,9.7272996902465820,34.1133995056152340,189.4794006347656200,501.6747131347656000,9.7185258865356450,37.5216712951660160,50,103,84,79,72,14904,2147735872,2147427629,2148008256,2147874194,2147614436,2147101549,2148227949,2147203190,3084,4,13,33894
1368829023,5810,339.3399963378906000,10.0932998657226560,34.1198997497558600,194.1150054931640600,489.2069091796875000,10.1106100082397460,37.0108108520507800,49,103,87,81,71,14898,2147734628,2147429769,2148014582,2147869897,2147613732,2147101348,2148226742,2147204626,53,4,13,22269
1368829126,5812,328.3399963378906000,10.3921003341674800,34.1305999755859400,197.9445037841797000,480.3677978515625000,10.3879499435424800,36.6212081909179700,49,102,88,80,72,14900,2147734089,2147429522,2148016822,2147874678,2147610057,2147098020,2148222336,2147205897,2380,3,13,7856
1368829241,5809,316.5199890136719000,10.8030996322631840,34.1477012634277340,203.7306060791015600,465.6094970703125000,10.8498897552490230,36.0214004516601560,49,104,90,79,71,14901,2147732525,2147430409,2148025974,2147873819,2147606884,2147108242,2148226194,2147205604,1392,3,13,60068
1368829360,5808,306.2399902343750000,11.1876001358032230,34.1598014831543000,207.3273925781250000,455.1159057617187500,11.1775398254394530,35.6344604492187500,48,104,84,80,70,14902,2147730550,2147434221,2148035309,2147873728,2147608749,2147112219,2148232914,2147207652,325,3,13,40059
1368829523,5809,296.0899963378906000,11.6345996856689450,34.1921005249023440,210.9582977294922000,440.7944030761719000,11.6236801147460940,35.1905403137207000,48,104,86,79,69,14904,2147728585,2147437805,2148045083,2147870866,2147605238,2147115456,2148237001,2147207881,1727,3,14,17387
1368829691,5807,284.0100097656250000,12.3479003906250000,34.2300987243652340,212.3824005126953000,417.8416137695312500,12.3364095687866210,34.7434501647949200,48,102,86,81,69,14901,2147729801,2147447323,2148063442,2147871277,2147602194,2147126089,2148241654,2147209865,1078,3,14,2017
1368829818,5805,273.9899902343750000,12.7189998626708980,34.2417984008789060,213.2142028808593800,405.7131958007812500,12.7119703292846680,34.5056915283203100,48,102,88,80,68,14899,2147725549,2147455890,2148086253,2147871606,2147601572,2147135579,2148250806,2147211044,3315,3,14,40086
1368829978,5812,259.7600097656250000,13.1891002655029300,34.2714004516601560,212.8854064941406200,389.6534118652344000,13.2082595825195310,34.2754096984863300,48,104,87,81,67,14902,2147727049,2147476169,2148135323,2147872338,2147598902,2147148361,2148271670,2147212370,2756,3,14,48695
1368830093,5807,248.5099945068359400,14.0239000320434570,34.3361015319824200,213.2890930175781200,364.6767883300781000,13.9780101776123050,33.8713607788085940,49,104,86,80,67,14873,2147733284,2147502701,2148187730,2147874276,2147596918,2147168429,2148291382,2147213129,2233,4,13,37759
1368830222,5810,237.5000000000000000,14.8916997909545900,34.4267997741699200,215.1215972900390600,334.2575073242187500,14.9126100540161130,33.3147315979003900,48,104,87,80,66,14873,2147729618,2147538404,2148267520,2147873590,2147593307,2147196160,2148326619,2147217444,2380,3,14,51864
1368830361,5810,226.8999938964843800,15.6710996627807620,34.5008010864257800,213.9998931884765600,309.9753112792969000,15.6568298339843750,33.0200004577636700,48,105,87,79,66,14869,2147737490,2147587437,2148367360,2147873033,2147594459,2147228992,2148374052,2147221824,803,3,14,7188
1368830512,5806,215.7299957275390600,16.4325008392334000,34.5976982116699200,214.2178039550781200,284.4877014160156000,16.4366893768310550,32.6402397155761700,50,104,87,81,65,14901,2147754212,2147670180,2148512886,2147873344,2147598656,2147281417,2148439076,2147232045,2593,2,15,51923
1368830647,5808,203.7500000000000000,17.3467998504638670,34.7128982543945300,215.1089019775390600,252.7884979248047000,17.4053707122802730,32.1422805786132800,49,107,86,80,66,14897,2147787227,2147803392,2148755382,2147877293,2147607579,2147374235,2148557211,2147238345,3084,3,15,58342
1368830714,5807,196.6600036621093800,17.9764003753662100,34.7961997985839840,214.0254058837890600,232.2084960937500000,18.0338993072509770,31.9135208129882800,51,107,84,81,64,14896,2147820918,2147920082,2148942848,2147875547,2147616813,2147447561,2148651721,2147245723,3230,3,15,58027
1368830769,5806,191.2899932861328000,18.3248996734619140,34.8399009704589840,213.4176940917968800,222.0079040527343800,18.3453998565673830,31.8054409027099600,54,110,88,81,64,14880,2147856265,2148027794,2149116717,2147877476,2147630317,2147509321,2148733275,2147250496,2581,2,15,26969
1368830824,5807,186.3899993896484400,18.5879993438720700,34.8759994506835940,213.4382019042968800,213.5765991210937500,18.6028900146484380,31.6879291534423830,56,112,88,82,65,14887,2147905819,2148150043,2149307410,2147878875,2147647917,2147590244,2148835428,2147259410,1829,3,15,3224
1368830899,5807,179.9799957275390600,18.8426990509033200,34.9094009399414060,213.3739929199218800,206.2088928222656200,18.8279209136962900,31.5902900695800780,56,121,90,81,64,14878,2147986541,2148337920,2149591762,2147880384,2147682816,2147706980,2148975734,2147267821,1373,3,14,36883
1368830954,5806,175.6900024414062500,19.0664997100830080,34.9347991943359400,212.8332977294922000,198.1542968750000000,19.0739707946777340,31.5090599060058600,60,116,88,82,64,14873,2148054601,2148471762,2149771282,2147880109,2147711131,2147792384,2149070089,2147278637,1431,2,15,50456
1368831009,5809,171.5899963378906200,19.3640003204345700,34.9682998657226560,211.2810058593750000,188.1560058593750000,19.3794708251953120,31.4571990966796880,65,120,90,83,63,14867,2148165275,2148728914,2150157906,2147879414,2147752777,2147918683,2149237083,2147291428,992,2,14,29785
1368831064,5806,167.8300018310547000,19.5900993347167970,35.0017013549804700,211.3325042724609400,181.0130004882812500,19.5977802276611330,31.3575305938720700,72,117,88,81,63,14865,2148263259,2148888265,2150363081,2147884269,2147794724,2148019995,2149334683,2147298688,3527,3,15,46495
1368831119,5809,163.9700012207031200,19.8166999816894530,35.0317001342773440,211.7362060546875000,173.9689025878906200,19.8131408691406250,31.2403793334960940,75,122,91,82,62,14857,2148328987,2148947574,2150372681,2147884882,2147816731,2148061485,2149348480,2147302582,3324,2,15,59043
1368831174,5806,159.9900054931640600,19.9648990631103500,35.0541992187500000,212.4488983154297000,168.5016937255859400,19.9803295135498050,31.1279392242431640,83,119,90,84,63,14851,2148642989,2149604662,2151365202,2147891547,2147943058,2148389824,2149770358,2147337289,3112,2,15,8745
1368831253,5806,154.5700073242187500,20.1714992523193360,35.0788993835449200,212.8690948486328000,160.7445983886718800,20.2176399230957030,31.0014095306396500,94,125,88,82,63,14846,2149018377,2150248740,2152230198,2147898139,2148090084,2148712521,2150147218,2147360365,2734,2,15,35322
1368831308,5810,151.2200012207031200,20.3441009521484380,35.0904998779296900,212.7891998291015600,156.9423065185547000,20.3339996337890620,30.9547100067138670,101,125,89,83,62,14839,2148426642,2148853622,2149988873,2147889042,2147853266,2147950052,2149107062,2147286518,2340,2,15,63156
1368831375,5809,147.3500061035156200,20.4211006164550780,35.1030006408691400,212.8334045410156200,153.9403991699218800,20.4258804321289060,30.9122505187988280,99,121,89,81,63,14838,2149456045,2150836973,2152922395,2147906057,2148240329,2148925979,2150334217,2147384155,1347,2,15,9918
1368831442,5810,143.5399932861328000,20.5331993103027340,35.1172981262207000,213.7066955566406200,150.3816070556640600,20.5348300933837900,30.8183307647705080,103,121,92,83,63,14827,2150064000,2151803181,2154192292,2147917494,2148483538,2149415872,2150895488,2147429211,911,2,15,33915
1368831521,5808,139.3099975585937500,20.7619991302490230,35.1427001953125000,214.7216033935547000,142.9895019531250000,20.7612209320068360,30.6662693023681640,111,125,92,83,62,14818,2150664704,2152645842,2155210852,2147926409,2148713362,2149784612,2151290925,2147467766,679,2,16,33224
1368831603,5806,135.3500061035156200,20.9102001190185550,35.1491012573242200,214.8287048339843800,138.5046997070312500,20.8986301422119140,30.6011791229248050,115,133,91,84,63,14801,2151450505,2153706496,2156469842,2147945280,2148991808,2150215963,2151738834,2147508470,752,2,15,4016
1368831682,5810,131.6699981689453000,21.2730007171630860,35.1982994079589840,215.2832031250000000,127.5324020385742200,21.2350101470947270,30.4324607849121100,131,131,91,84,60,14795,2152225389,2154682468,2157529773,2147960585,2149274386,2150598829,2152112768,2147546203,3101,2,15,14947
1368831773,5811,127.8499984741211000,21.4944000244140620,35.2230987548828100,219.5207061767578000,120.0048980712890600,21.4659690856933600,30.1148300170898440,137,135,91,84,61,14776,2153586404,2156600054,2159835346,2147987446,2149789824,2151390043,2152947108,2147622171,2571,1,16,31699
1368831876,5809,124.1200027465820300,21.6669006347656250,35.2336997985839840,220.9934997558593800,114.0115966796875000,21.6499691009521500,29.9619007110595700,147,129,90,84,61,14751,2155093046,2158595373,2162043977,2148021330,2150329508,2152143670,2153714404,2147696621,2769,2,15,9396
1368831994,5810,120.1900024414062500,21.9032001495361330,35.2844009399414060,223.6212005615234400,107.4016036987304700,21.8530292510986330,29.7443103790283200,155,133,93,84,62,14745,2150949622,2151816594,2152840640,2147917046,2148831826,2149221760,2150247168,2147405120,2323,2,15,34121
1368832133,5807,116.3899993896484400,22.0678005218505860,35.3028984069824200,230.2416992187500000,101.5672988891601600,22.0323600769042970,29.3461093902587900,167,132,90,85,60,14731,2159346240,2164084918,2167735524,2148123392,2151963017,2154236059,2155671890,2147896100,3209,2,16,51380
1368832304,5808,111.8000030517578100,22.2534999847412100,35.3240013122558600,235.1770935058593800,94.1423187255859400,22.2607593536376950,29.0177898406982420,134,128,90,84,60,14729,2164272914,2170348361,2173580096,2148227392,2154248502,2157176758,2158301403,2148149805,652,1,16,26208
1368832419,5811,108.0599975585937500,22.5650005340576170,35.3619995117187500,238.1107025146484400,84.7909164428711000,22.5486907958984380,28.7635097503662100,88,124,93,82,59,14783,2167314733,2173852699,2176568384,2148305353,2156343817,2159736128,2160305408,2148331126,3110,2,16,44468
1368832570,5807,103.4599990844726600,22.6678009033203120,35.3698005676269500,240.2126007080078000,80.3404998779296900,22.6858291625976560,28.6116504669189450,76,123,93,84,59,14773,2169495844,2175459913,2176978989,2148369773,2158905801,2162635483,2161998747,2148464640,1719,2,16,7199
1368832649,5810,99.6399993896484400,22.8027992248535160,35.3838996887207000,242.3157043457031200,76.8587036132812500,22.7931804656982420,28.4731693267822270,73,125,92,85,61,14768,2178102153,2186277440,2188225645,2148676086,2164527981,2169851017,2167954450,2148997065,1376,2,16,30913
1368832704,5807,96.8600006103515600,22.8236007690429700,35.3851013183593750,243.1293029785156200,75.9384613037109400,22.8215599060058600,28.4252109527587900,72,124,90,85,59,14771,2181072722,2189362166,2190835190,2148802075,2167254646,2172989449,2170173376,2149177389,1594,2,16,65526
1368832759,5805,93.8000030517578100,22.8743000030517580,35.3894996643066400,243.6875000000000000,74.2276000976562500,22.8743305206298830,28.3790798187255860,73,127,91,86,58,14769,2185864164,2194677421,2195833746,2149049051,2171087396,2177522843,2173476388,2149477394,1661,2,16,26311
1368832814,5808,90.6800003051757800,22.8987007141113280,35.3928985595703100,244.4161071777343800,73.5125198364257800,22.8963909149169920,28.3378505706787100,72,126,93,85,58,14760,2190716233,2200025865,2200908150,2149293568,2175148443,2182284470,2176991542,2149769005,1209,2,16,38347
1368832872,5806,87.2300033569336000,22.9251995086669920,35.3945007324218750,245.1790924072265600,72.4921569824218800,22.9278697967529300,28.2912292480468750,69,126,88,84,57,14759,2195990564,2205618660,2206171803,2149642660,2179774070,2187553718,2180840384,2150132525,728,2,15,4318
1368832927,5810,83.8899993896484400,22.9694995880126950,35.3961982727050800,245.5337066650390600,71.2436370849609400,22.9663906097412100,28.2600307464599600,66,127,92,87,55,14760,2202163629,2212270171,2212423606,2150078381,2185095725,2193567131,2185230043,2150542902,278,2,15,55807
1368832982,5807,80.5699996948242200,23.0088996887207030,35.3973007202148440,246.0706939697265600,69.7570114135742200,23.0122795104980470,28.2177696228027340,65,127,95,86,56,14754,2208548434,2218998363,2218634770,2150565312,2190885595,2199983076,2189836745,2150994916,3177,1,16,62404
1368833037,5805,77.2099990844726600,23.0436992645263670,35.3992996215820300,246.4255981445312500,68.7957611083984400,23.0419502258300780,28.1902503967285160,65,127,92,85,58,14757,2215481746,2226302125,2225743826,2151313481,2197225600,2206674788,2194424932,2151479488,2954,2,16,52349
1368833092,5810,73.9199981689453100,23.0643997192382800,35.4014015197753900,246.6889038085937500,67.8833923339843800,23.0701103210449220,28.1673908233642580,66,129,91,87,56,14754,2223062866,2233979437,2232746761,2152095990,2205107867,2215225216,2200480731,2152097307,2767,1,15,52463
1368833147,5809,70.7799987792968800,23.1096992492675780,35.4020004272460940,246.8365936279297000,66.5221633911132800,23.1121406555175780,28.1440601348876950,66,129,94,87,55,14737,2233412854,2245069394,2243615186,2153244461,2214153344,2225089536,2207557458,2152904045,2322,1,16,5026
1368833205,5805,67.6900024414062500,23.1446990966796880,35.4020996093750000,247.2812042236328000,65.4844970703125000,23.1441898345947270,28.1115398406982420,62,131,93,85,57,14725,2241506898,2252785380,2250728694,2154368109,2221979044,2233118235,2212963529,2153511414,1818,2,16,22524
1368833260,5809,64.9300003051757800,23.1832008361816400,35.4012985229492200,247.7431945800781200,64.2239837646484400,23.1831207275390620,28.0758209228515620,61,129,93,86,56,14735,2251348169,2262494336,2260019730,2155751433,2231880932,2243474377,2220154541,2154372324,1599,1,16,15026
1368833315,5812,62.2400016784668000,23.2091999053955080,35.4031982421875000,248.2512969970703000,63.3782806396484400,23.2092494964599600,28.0433292388916000,59,129,92,85,56,14735,2262204242,2273731382,2271276169,2157634304,2242121563,2253941787,2227218614,2155279433,1619,1,16,45423
1368833370,5808,59.7200012207031250,23.2322006225585940,35.4029998779296900,248.7158966064453000,62.5423316955566400,23.2350692749023440,28.0127601623535160,59,127,92,86,57,14740,2272810249,2284306605,2281580205,2159699209,2253111716,2265300982,2235109302,2156240896,1598,2,16,38832
1368833425,5808,57.3899993896484400,23.2539005279541000,35.4015007019043000,248.9317016601562500,61.6806106567382800,23.2616996765136720,27.9927406311035160,59,127,91,86,59,14742,2279115062,2289457252,2286282916,2161288877,2261988288,2273658349,2240152841,2156846445,1171,1,16,39821
1368833480,5808,55.2299995422363300,23.3152008056640620,35.4011001586914060,249.2210998535156200,59.8129806518554700,23.3194103240966800,27.9570007324218750,58,126,94,88,57,14731,2288301540,2297863067,2293554852,2162348132,2271424850,2282613010,2246041380,2157706669,924,1,16,40167
1368833538,5810,53.1500015258789060,23.3451004028320300,35.3989982604980500,249.6434936523437500,58.7503395080566400,23.3522605895996100,27.9256992340087900,58,129,93,85,58,14732,2301629604,2311735515,2308213952,2166092086,2283739072,2294780187,2254293915,2158850706,419,1,15,62183
1368833593,5811,51.2599983215332000,23.3682994842529300,35.3992004394531250,249.8462066650390600,57.9309997558593750,23.3775901794433600,27.9068298339843750,56,126,92,86,58,14739,2309157056,2318486299,2313730093,2167388580,2295392054,2305788754,2261338989,2159822674,3401,1,16,21236
1368833648,5806,49.3800010681152340,23.4023990631103500,35.4000015258789060,250.0240020751953000,56.9002189636230500,23.4094600677490230,27.8863601684570300,56,126,93,88,53,14738,2319316315,2328334409,2323211163,2170035565,2307672256,2317104292,2268535213,2161003446,3004,1,16,6572
1368833703,5808,47.5000000000000000,23.4347991943359380,35.4015998840332000,250.2279968261718800,55.7548599243164060,23.4448795318603500,27.8635807037353500,55,125,95,85,58,14735,2333953664,2343316955,2338435346,2174228708,2321987766,2330652534,2277083830,2162457216,2926,2,16,6378
1368833758,5813,45.6800003051757800,23.5018997192382800,35.4031982421875000,250.8383941650390600,53.7458190917968750,23.5070209503173830,27.8125495910644530,55,131,96,87,58,14724,2339944009,2348181220,2342552667,2176128676,2333589952,2340776822,2283264740,2163625225,2677,1,16,57529
1368833813,5806,43.8899993896484400,23.5331001281738280,35.3991012573242200,251.0464019775390600,52.4926681518554700,23.5457897186279300,27.7881908416748050,56,128,93,86,59,14728,2345706505,2352724452,2347599021,2180459309,2343158171,2348706934,2287940544,2164902125,2022,1,16,9532
1368833891,5804,40.9500007629394500,23.6035995483398440,35.4011993408203100,251.0901031494140600,50.3536109924316400,23.6119804382324220,27.7600803375244140,54,128,93,87,58,14733,2364445440,2369710345,2363617892,2187138194,2371254912,2374032667,2303618075,2167647680,2064,1,16,7950
1368833946,5809,38.1599998474121100,23.6742992401123050,35.4010009765625000,251.1799011230468800,48.0899391174316400,23.6820602416992200,27.7281398773193360,54,132,93,87,54,14722,2391037805,2397980900,2393680758,2197702336,2399475520,2400210834,2321626276,2171642322,2498,2,16,11891
1368834001,5809,35.3499984741210940,23.7108001708984380,35.4006004333496100,251.2330017089843800,46.2500495910644500,23.7390308380126950,27.7033195495605470,54,130,92,86,55,14734,2410763136,2417138112,2413468708,2208886985,2425244150,2422482422,2335475291,2174628233,2517,1,16,26002
1368834056,5810,32.7799987792968750,23.9006004333496100,35.3928985595703100,250.4916992187500000,40.9791107177734400,23.9023303985595700,27.6700401306152340,52,127,96,88,54,14730,2424721307,2429316032,2425076105,2218172370,2452574400,2447412827,2351827163,2178494619,2270,2,16,18371
1368834111,5808,30.6800003051757800,23.9820995330810550,35.3932991027832000,249.8542022705078000,37.8762397766113300,23.9985294342041000,27.6589698791503900,52,129,96,87,58,14731,2430273645,2433569161,2429979264,2225617225,2477094464,2468533805,2366018185,2182028608,2273,2,15,15585
1368834166,5821,28.9899997711181640,24.3470993041992200,35.3843002319335940,247.2463073730468800,26.7229309082031250,24.3447093963623050,27.6341209411621100,52,127,93,85,55,14739,2457694125,2463447680,2463062683,2239429494,2488734893,2478907382,2372545225,2183767963,1775,1,17,24791
1368834272,5806,27.9899997711181640,24.6956005096435550,35.3824005126953100,244.5870056152343800,15.4234695434570310,24.6960792541503900,27.6106605529785160,52,123,94,87,54,14745,2436862765,2437912493,2435577920,2234961398,2491372662,2479690770,2372474788,2184645001,1056,3,16,971
1368834507,5806,26.7399997711181640,24.7213001251220700,35.3862991333007800,243.7283020019531200,13.8259096145629880,24.7458190917968750,27.6285800933837900,51,121,92,85,55,14745,2441858176,2441855936,2438482011,2237238345,2511805339,2500777069,2387993956,2187952713,971,2,16,41177
